| time (UTC) | temp F | wind direction | speed MPH | gust MPH | rain 1hr in | rain 24hr in | rain mn in | humidity % | barometer mb |
| 20260510174600 | 77 | 183 | 0.0 | 0.0 | 0.00 | 0.19 | 0.01 | 55 | 1012.1 |
| 20260510173056 | 76 | 181 | 0.0 | 0.0 | 0.00 | 0.19 | 0.01 | 60 | 1012.1 |
| 20260510171554 | 75 | 200 | 0.0 | 0.0 | 0.00 | 0.19 | 0.01 | 61 | 1012.1 |
| 20260510170050 | 74 | 205 | 0.0 | 0.0 | 0.00 | 0.19 | 0.01 | 67 | 1012.1 |
| 20260510164545 | 72 | 206 | 0.0 | 0.0 | 0.00 | 0.19 | 0.01 | 71 | 1012.3 |
| 20260510163040 | 71 | 201 | 0.0 | 0.0 | 0.00 | 0.19 | 0.01 | 71 | 1012.3 |
| 20260510161535 | 69 | 195 | 0.0 | 0.0 | 0.00 | 0.19 | 0.01 | 74 | 1012.4 |
| 20260510160032 | 68 | 249 | 0.0 | 0.0 | 0.00 | 0.19 | 0.01 | 76 | 1012.4 |
| 20260510154532 | 67 | 5 | 0.0 | 0.0 | 0.00 | 0.19 | 0.01 | 82 | 1012.8 |
| 20260510153023 | 65 | 226 | 0.0 | 0.0 | 0.00 | 0.19 | 0.01 | 86 | 1012.7 |
| 20260510151518 | 63 | 219 | 0.0 | 0.0 | 0.00 | 0.19 | 0.01 | 91 | 1013.0 |
| 20260510150015 | 62 | 148 | 0.0 | 0.0 | 0.00 | 0.19 | 0.01 | 92 | 1012.8 |
| 20260510144510 | 59 | 125 | 0.0 | 0.0 | 0.00 | 0.19 | 0.01 | 93 | 1012.8 |
| 20260510143007 | 58 | 192 | 0.0 | 0.0 | 0.00 | 0.19 | 0.01 | 93 | 1013.0 |
| 20260510141504 | 57 | 199 | 0.0 | 0.0 | 0.00 | 0.19 | 0.01 | 93 | 1012.8 |
| 20260510140109 | 56 | 215 | 0.0 | 0.0 | 0.00 | 0.19 | 0.01 | 93 | 1012.8 |
| 20260510134605 | 55 | 221 | 0.0 | 0.0 | 0.00 | 0.19 | 0.01 | 93 | 1012.8 |
| 20260510133055 | 55 | 221 | 0.0 | 0.0 | 0.00 | 0.19 | 0.01 | 93 | 1012.8 |
| 20260510131555 | 54 | 221 | 0.0 | 0.0 | 0.00 | 0.19 | 0.01 | 93 | 1013.0 |
| 20260510130051 | 54 | 224 | 0.0 | 0.0 | 0.00 | 0.19 | 0.01 | 93 | 1012.8 |
| 20260510124546 | 53 | 175 | 0.0 | 0.0 | 0.00 | 0.19 | 0.01 | 93 | 1012.4 |
| 20260510123045 | 53 | 88 | 0.0 | 0.0 | 0.00 | 0.19 | 0.01 | 93 | 1012.5 |
| 20260510121543 | 53 | 146 | 0.0 | 0.0 | 0.00 | 0.19 | 0.01 | 93 | 1012.4 |
| 20260510120041 | 52 | 44 | 0.0 | 0.0 | 0.00 | 0.19 | 0.01 | 93 | 1012.1 |
| 20260510114539 | 52 | 44 | 0.0 | 0.0 | 0.00 | 0.19 | 0.01 | 93 | 1012.0 |
| 20260510113039 | 52 | 49 | 0.0 | 0.0 | 0.00 | 0.19 | 0.01 | 93 | 1012.0 |
| 20260510111538 | 51 | 49 | 0.0 | 0.0 | 0.00 | 0.19 | 0.01 | 93 | 1012.1 |
| 20260510110035 | 51 | 49 | 0.0 | 0.0 | 0.00 | 0.19 | 0.01 | 93 | 1011.8 |
| 20260510104527 | 51 | 49 | 0.0 | 0.0 | 0.00 | 0.19 | 0.01 | 93 | 1011.6 |
| 20260510103026 | 51 | 49 | 0.0 | 0.0 | 0.01 | 0.19 | 0.01 | 93 | 1011.4 |
| 20260510101521 | 50 | 101 | 0.0 | 0.0 | 0.01 | 0.19 | 0.01 | 93 | 1011.3 |
| 20260510100019 | 50 | 101 | 0.0 | 0.0 | 0.01 | 0.19 | 0.01 | 93 | 1011.2 |
| 20260510094515 | 49 | 42 | 0.0 | 0.0 | 0.01 | 0.19 | 0.01 | 93 | 1011.2 |
| 20260510093012 | 49 | 38 | 0.0 | 0.0 | 0.00 | 0.18 | 0.00 | 93 | 1011.3 |
| 20260510091508 | 47 | 99 | 0.0 | 0.0 | 0.00 | 0.18 | 0.00 | 92 | 1011.3 |
| 20260510090005 | 46 | 99 | 0.0 | 0.0 | 0.00 | 0.18 | 0.00 | 92 | 1011.3 |
| 20260510084506 | 44 | 275 | 0.0 | 0.0 | 0.00 | 0.18 | 0.00 | 92 | 1011.3 |
| 20260510083001 | 43 | 28 | 0.0 | 0.0 | 0.00 | 0.18 | 0.00 | 92 | 1010.7 |
| 20260510081502 | 43 | 28 | 0.0 | 0.0 | 0.00 | 0.18 | 0.00 | 92 | 1010.6 |
| 20260510080000 | 43 | 28 | 0.0 | 0.0 | 0.00 | 0.18 | 0.00 | 92 | 1010.8 |
| 20260510074605 | 43 | 28 | 0.0 | 0.0 | 0.00 | 0.18 | 0.00 | 91 | 1010.6 |
| 20260510073059 | 43 | 28 | 0.0 | 0.0 | 0.00 | 0.18 | 0.00 | 91 | 1010.6 |
| 20260510071556 | 43 | 28 | 0.0 | 0.0 | 0.00 | 0.18 | 0.00 | 91 | 1010.5 |
| 20260510070056 | 43 | 28 | 0.0 | 0.0 | 0.00 | 0.18 | 0.00 | 91 | 1010.3 |
| 20260510064604 | 44 | 28 | 0.0 | 0.0 | 0.00 | 0.18 | 0.00 | 91 | 1010.1 |
| 20260510063052 | 44 | 28 | 0.0 | 0.0 | 0.00 | 0.18 | 0.00 | 91 | 1010.0 |
| 20260510061551 | 45 | 28 | 0.0 | 0.0 | 0.00 | 0.18 | 0.00 | 91 | 1010.2 |
| 20260510060047 | 45 | 28 | 0.0 | 0.0 | 0.00 | 0.18 | 0.00 | 91 | 1010.2 |
| 20260510054546 | 46 | 28 | 0.0 | 0.0 | 0.00 | 0.18 | 0.00 | 91 | 1010.3 |
| 20260510053044 | 46 | 28 | 0.0 | 0.0 | 0.00 | 0.18 | 0.00 | 92 | 1010.5 |
| 20260510051544 | 46 | 28 | 0.0 | 0.0 | 0.00 | 0.18 | 0.00 | 92 | 1010.6 |
| 20260510050041 | 46 | 28 | 0.0 | 0.0 | 0.00 | 0.18 | 0.00 | 92 | 1010.6 |
| 20260510044554 | 46 | 28 | 0.0 | 0.0 | 0.00 | 0.18 | 0.00 | 92 | 1010.7 |
| 20260510043038 | 46 | 28 | 0.0 | 0.0 | 0.00 | 0.18 | 0.00 | 91 | 1010.7 |
| 20260510041535 | 45 | 28 | 0.0 | 0.0 | 0.00 | 0.18 | 0.00 | 91 | 1010.7 |
| 20260510040033 | 45 | 28 | 0.0 | 0.0 | 0.00 | 0.18 | 0.00 | 91 | 1010.8 |
| 20260510034533 | 45 | 28 | 0.0 | 0.0 | 0.00 | 0.18 | 0.18 | 90 | 1010.6 |
| 20260510033031 | 45 | 28 | 0.0 | 0.0 | 0.00 | 0.18 | 0.18 | 90 | 1010.5 |
| 20260510031532 | 46 | 28 | 0.0 | 0.0 | 0.00 | 0.18 | 0.18 | 90 | 1010.5 |
| 20260510030036 | 46 | 28 | 0.0 | 0.0 | 0.00 | 0.18 | 0.18 | 90 | 1010.4 |
| 20260510024527 | 47 | 28 | 0.0 | 0.0 | 0.00 | 0.18 | 0.18 | 89 | 1010.3 |
| 20260510023025 | 47 | 28 | 0.0 | 0.0 | 0.00 | 0.18 | 0.18 | 89 | 1010.3 |
| 20260510021529 | 48 | 28 | 0.0 | 0.0 | 0.00 | 0.18 | 0.18 | 89 | 1010.3 |
| 20260510020027 | 48 | 28 | 0.0 | 0.0 | 0.00 | 0.18 | 0.18 | 89 | 1010.2 |
| 20260510014524 | 49 | 28 | 0.0 | 0.0 | 0.00 | 0.18 | 0.18 | 89 | 1010.4 |
| 20260510013025 | 50 | 28 | 0.0 | 0.0 | 0.00 | 0.18 | 0.18 | 88 | 1010.4 |
| 20260510011523 | 50 | 28 | 0.0 | 0.0 | 0.00 | 0.18 | 0.18 | 88 | 1010.2 |
| 20260510010023 | 51 | 28 | 0.0 | 0.0 | 0.00 | 0.18 | 0.18 | 88 | 1010.0 |
| 20260510004522 | 52 | 28 | 0.0 | 0.0 | 0.00 | 0.18 | 0.18 | 87 | 1009.9 |
| 20260510003025 | 53 | 28 | 0.0 | 0.0 | 0.00 | 0.18 | 0.18 | 87 | 1009.7 |
| 20260510001521 | 54 | 28 | 0.0 | 0.0 | 0.00 | 0.18 | 0.18 | 88 | 1009.7 |
| 20260510000022 | 55 | 28 | 0.0 | 0.0 | 0.00 | 0.18 | 0.18 | 88 | 1009.6 |
| 20260509234520 | 55 | 28 | 0.0 | 0.0 | 0.00 | 0.18 | 0.18 | 88 | 1009.4 |
| 20260509233024 | 56 | 28 | 0.0 | 0.0 | 0.00 | 0.18 | 0.18 | 89 | 1009.6 |
| 20260509231519 | 56 | 28 | 0.0 | 0.0 | 0.00 | 0.18 | 0.18 | 90 | 1009.5 |
| 20260509230019 | 57 | 28 | 0.0 | 0.0 | 0.00 | 0.18 | 0.18 | 90 | 1009.4 |
| 20260509224519 | 56 | 88 | 0.0 | 0.0 | 0.00 | 0.18 | 0.18 | 90 | 1009.4 |
| 20260509223018 | 57 | 48 | 0.0 | 0.0 | 0.05 | 0.18 | 0.18 | 89 | 1009.4 |
| 20260509221517 | 57 | 48 | 0.0 | 0.0 | 0.13 | 0.18 | 0.18 | 88 | 1009.8 |
| 20260509220016 | 57 | 48 | 0.0 | 0.0 | 0.18 | 0.18 | 0.18 | 88 | 1009.9 |
| 20260509214516 | 57 | 349 | 0.0 | 0.0 | 0.18 | 0.18 | 0.18 | 87 | 1010.0 |
| 20260509213115 | 58 | 65 | 0.0 | 0.0 | 0.14 | 0.14 | 0.14 | 84 | 1010.2 |
| 20260509211514 | 59 | 65 | 0.0 | 0.0 | 0.05 | 0.05 | 0.05 | 81 | 1010.2 |
| 20260509210012 | 59 | 65 | 0.0 | 0.0 | 0.00 | 0.00 | 0.00 | 77 | 1010.1 |
| 20260509204513 | 60 | 19 | 0.0 | 0.0 | 0.00 | 0.00 | 0.00 | 77 | 1009.6 |
| 20260509203019 | 60 | 343 | 0.0 | 0.0 | 0.00 | 0.00 | 0.00 | 76 | 1009.9 |
| 20260509201511 | 60 | 132 | 0.0 | 0.0 | 0.00 | 0.00 | 0.00 | 77 | 1009.7 |
| 20260509200010 | 60 | 67 | 0.0 | 0.0 | 0.00 | 0.00 | 0.00 | 78 | 1009.7 |
| 20260509194507 | 60 | 188 | 0.0 | 0.0 | 0.00 | 0.00 | 0.00 | 76 | 1009.8 |
| 20260509193006 | 60 | 162 | 0.0 | 0.0 | 0.00 | 0.00 | 0.00 | 75 | 1010.2 |
| 20260509191506 | 61 | 53 | 0.0 | 0.0 | 0.00 | 0.00 | 0.00 | 74 | 1010.2 |
| 20260509190006 | 61 | 71 | 0.0 | 0.0 | 0.00 | 0.00 | 0.00 | 73 | 1010.3 |
| 20260509184510 | 62 | 313 | 0.0 | 0.0 | 0.00 | 0.00 | 0.00 | 75 | 1010.4 |
| 20260509183005 | 62 | 229 | 0.0 | 0.0 | 0.00 | 0.00 | 0.00 | 72 | 1010.3 |
| 20260509181503 | 62 | 336 | 0.0 | 0.0 | 0.00 | 0.00 | 0.00 | 69 | 1010.1 |
| 20260509180002 | 63 | 221 | 0.0 | 0.0 | 0.00 | 0.00 | 0.00 | 68 | 1010.1 |